VOZ1164 YCFS-YSSY

Flight info

Callsign VOZ1164
Flight time 0h 53m
Altitude 28000
Route BANDA J70 IGDAM/N0422F290 H652 BOREE
Aircraft B738/M-SDE2E3FGHIRWXY/LB1

Departure

Time 2026-05-04 04:30
Airport Coffs Harbour Airport (YCFS)

Arrival

Time 2026-05-04 05:23
Airport Sydney Kingsford Smith International Airport (YSSY)
Time Latitude Longitude Altitude Speed Heading
2026-05-04 04:18 -30.32355 153.11593 26 ft 0 kts 340°
2026-05-04 04:22 -30.32352 153.11596 30 ft 1 kts 23°
2026-05-04 04:23 -30.32354 153.11604 29 ft 1 kts 112°
2026-05-04 04:23 -30.32370 153.11618 28 ft 5 kts 126°
2026-05-04 04:23 -30.32367 153.11648 27 ft 4 kts 70°
2026-05-04 04:23 -30.32367 153.11685 29 ft 6 kts 110°
2026-05-04 04:24 -30.32404 153.11739 30 ft 10 kts 131°
2026-05-04 04:24 -30.32459 153.11773 27 ft 10 kts 198°
2026-05-04 04:24 -30.32515 153.11726 29 ft 11 kts 220°
2026-05-04 04:24 -30.32591 153.11651 27 ft 18 kts 221°
2026-05-04 04:25 -30.32693 153.11549 28 ft 20 kts 221°
2026-05-04 04:25 -30.32796 153.11446 27 ft 19 kts 221°
2026-05-04 04:25 -30.32896 153.11347 25 ft 19 kts 220°
2026-05-04 04:25 -30.32992 153.11252 25 ft 18 kts 220°
2026-05-04 04:26 -30.33086 153.11159 27 ft 17 kts 220°
2026-05-04 04:26 -30.33155 153.11089 26 ft 10 kts 221°
2026-05-04 04:26 -30.33214 153.11049 26 ft 10 kts 188°
2026-05-04 04:26 -30.33263 153.11090 25 ft 9 kts 130°
2026-05-04 04:27 -30.33305 153.11138 31 ft 9 kts 154°
2026-05-04 04:27 -30.33370 153.11118 29 ft 13 kts 217°
2026-05-04 04:27 -30.33464 153.11026 24 ft 23 kts 220°
2026-05-04 04:27 -30.33591 153.10899 23 ft 24 kts 220°
2026-05-04 04:28 -30.33710 153.10781 20 ft 19 kts 220°
2026-05-04 04:28 -30.33785 153.10718 21 ft 10 kts 196°
2026-05-04 04:28 -30.33822 153.10700 22 ft 1 kts 252°
2026-05-04 04:28 -30.33817 153.10693 22 ft 1 kts 310°
2026-05-04 04:29 -30.33802 153.10692 21 ft 3 kts 17°
2026-05-04 04:29 -30.33788 153.10707 23 ft 5 kts 41°
2026-05-04 04:29 -30.33786 153.10709 21 ft 0 kts 41°
2026-05-04 04:30 -30.33777 153.10718 22 ft 18 kts 40°
2026-05-04 04:30 -30.33421 153.11069 24 ft 114 kts 41°
2026-05-04 04:30 -30.32628 153.11847 259 ft 173 kts 39°
2026-05-04 04:30 -30.31680 153.12778 1089 ft 177 kts 40°
2026-05-04 04:31 -30.30895 153.13853 1797 ft 183 kts 67°
2026-05-04 04:31 -30.30970 153.15378 2383 ft 208 kts 117°
2026-05-04 04:31 -30.32085 153.16378 3284 ft 207 kts 166°
2026-05-04 04:31 -30.33476 153.16208 4271 ft 200 kts 207°
2026-05-04 04:32 -30.34625 153.15291 5115 ft 204 kts 221°
2026-05-04 04:32 -30.35744 153.14275 5962 ft 207 kts 220°
2026-05-04 04:32 -30.36941 153.13176 6282 ft 234 kts 220°
2026-05-04 04:32 -30.38286 153.11891 6402 ft 263 kts 222°
2026-05-04 04:33 -30.39701 153.10510 6993 ft 267 kts 222°
2026-05-04 04:33 -30.41138 153.09099 7601 ft 276 kts 223°
2026-05-04 04:33 -30.42533 153.07518 8307 ft 283 kts 229°
2026-05-04 04:33 -30.43866 153.05839 9256 ft 284 kts 229°
2026-05-04 04:34 -30.45203 153.04121 10066 ft 289 kts 230°
2026-05-04 04:34 -30.46540 153.02397 10972 ft 287 kts 230°
2026-05-04 04:34 -30.47880 153.00678 11813 ft 289 kts 230°
2026-05-04 04:34 -30.49242 152.98944 12634 ft 291 kts 230°
2026-05-04 04:35 -30.50612 152.97208 13499 ft 293 kts 230°
2026-05-04 04:35 -30.51993 152.95463 14288 ft 295 kts 230°
2026-05-04 04:35 -30.53393 152.93702 14986 ft 299 kts 230°
2026-05-04 04:35 -30.54816 152.91927 15680 ft 302 kts 230°
2026-05-04 04:36 -30.56249 152.90158 16361 ft 306 kts 230°
2026-05-04 04:36 -30.57719 152.88361 17105 ft 308 kts 231°
2026-05-04 04:36 -30.59201 152.86506 17852 ft 311 kts 232°
2026-05-04 04:36 -30.60652 152.84669 18526 ft 314 kts 232°
2026-05-04 04:37 -30.64823 152.78796 20538 ft 315 kts 237°
2026-05-04 04:37 -30.66175 152.76795 21198 ft 316 kts 237°
2026-05-04 04:38 -30.67538 152.74781 21826 ft 318 kts 237°
2026-05-04 04:38 -30.68912 152.72753 22480 ft 320 kts 237°
2026-05-04 04:38 -30.70292 152.70723 23176 ft 320 kts 237°
2026-05-04 04:38 -30.71679 152.68695 23809 ft 321 kts 237°
2026-05-04 04:39 -30.73080 152.66662 24340 ft 323 kts 237°
2026-05-04 04:39 -30.74462 152.64607 24884 ft 322 kts 240°
2026-05-04 04:39 -30.75807 152.62518 25398 ft 325 kts 237°
2026-05-04 04:39 -30.77293 152.60517 25911 ft 329 kts 234°
2026-05-04 04:40 -30.78882 152.58587 26424 ft 331 kts 232°
2026-05-04 04:40 -30.80519 152.56678 26845 ft 335 kts 232°
2026-05-04 04:40 -30.82186 152.54773 27384 ft 336 kts 232°
2026-05-04 04:40 -30.83858 152.52875 27930 ft 336 kts 232°
2026-05-04 04:41 -30.85546 152.50956 28034 ft 344 kts 232°
2026-05-04 04:41 -30.87285 152.48967 28057 ft 357 kts 232°
2026-05-04 04:41 -30.89083 152.46910 28066 ft 368 kts 232°
2026-05-04 04:41 -30.90939 152.44786 28067 ft 379 kts 232°
2026-05-04 04:42 -30.92845 152.42604 28069 ft 390 kts 231°
2026-05-04 04:42 -30.94804 152.40363 28068 ft 399 kts 231°
2026-05-04 04:42 -30.98846 152.35738 28068 ft 415 kts 231°
2026-05-04 04:43 -31.03009 152.30967 28059 ft 428 kts 231°
2026-05-04 04:43 -31.07286 152.26062 28071 ft 435 kts 231°
2026-05-04 04:44 -31.11618 152.21086 28059 ft 438 kts 231°
2026-05-04 04:44 -31.15968 152.16081 28051 ft 439 kts 231°
2026-05-04 04:45 -31.20310 152.11076 28042 ft 437 kts 231°
2026-05-04 04:47 -31.35267 151.93771 28045 ft 429 kts 231°
2026-05-04 04:47 -31.39508 151.88849 28056 ft 430 kts 231°
2026-05-04 04:48 -31.44024 151.84174 28062 ft 439 kts 224°
2026-05-04 04:49 -31.56399 151.73576 28058 ft 440 kts 224°
2026-05-04 04:49 -31.61323 151.69303 28064 ft 440 kts 224°
2026-05-04 04:50 -31.66242 151.65022 28058 ft 440 kts 224°
2026-05-04 04:50 -31.71165 151.60734 28049 ft 441 kts 224°
2026-05-04 04:51 -31.76088 151.56443 28052 ft 440 kts 224°
2026-05-04 04:51 -31.80975 151.52174 28043 ft 441 kts 224°
2026-05-04 04:52 -31.85887 151.47860 28045 ft 441 kts 224°
2026-05-04 04:52 -31.90798 151.43533 28055 ft 442 kts 224°
2026-05-04 04:53 -31.95727 151.39187 28045 ft 443 kts 224°
2026-05-04 04:53 -32.00664 151.34832 28041 ft 444 kts 224°
2026-05-04 04:54 -32.05610 151.30465 28023 ft 444 kts 224°
2026-05-04 04:54 -32.10618 151.26172 28032 ft 450 kts 218°
2026-05-04 04:55 -32.16519 151.23336 28035 ft 467 kts 201°
2026-05-04 04:55 -32.23013 151.22093 28024 ft 475 kts 195°
2026-05-04 04:56 -32.29558 151.21036 28009 ft 474 kts 195°
2026-05-04 04:56 -32.36086 151.19940 28021 ft 473 kts 195°
2026-05-04 04:57 -32.42602 151.18803 28012 ft 473 kts 195°
2026-05-04 04:57 -32.49101 151.17657 28014 ft 472 kts 195°
2026-05-04 04:58 -32.55592 151.16510 28001 ft 471 kts 195°
2026-05-04 04:58 -32.58845 151.15934 27459 ft 476 kts 195°
2026-05-04 04:58 -32.62116 151.15355 26695 ft 473 kts 195°
2026-05-04 04:59 -32.65366 151.14781 25849 ft 473 kts 194°
2026-05-04 04:59 -32.68619 151.14206 25112 ft 470 kts 194°
2026-05-04 04:59 -32.71835 151.13640 24494 ft 465 kts 194°
2026-05-04 04:59 -32.75022 151.13078 23850 ft 461 kts 193°
2026-05-04 05:00 -32.78184 151.12518 23134 ft 458 kts 193°
2026-05-04 05:00 -32.81321 151.11962 22452 ft 453 kts 193°
2026-05-04 05:00 -32.87486 151.10868 21178 ft 443 kts 192°
2026-05-04 05:01 -32.90519 151.10328 20557 ft 439 kts 192°
2026-05-04 05:01 -32.93531 151.09791 19948 ft 436 kts 192°
2026-05-04 05:01 -32.96518 151.09259 19348 ft 433 kts 192°
2026-05-04 05:01 -32.99488 151.08729 18742 ft 430 kts 192°
2026-05-04 05:02 -33.02439 151.08203 18076 ft 429 kts 191°
2026-05-04 05:02 -33.05378 151.07678 17407 ft 426 kts 191°
2026-05-04 05:02 -33.08299 151.07157 16783 ft 422 kts 191°
2026-05-04 05:02 -33.11149 151.06648 16181 ft 419 kts 191°
2026-05-04 05:03 -33.14020 151.06134 15576 ft 415 kts 191°
2026-05-04 05:03 -33.16866 151.05625 14987 ft 412 kts 191°
2026-05-04 05:04 -33.25319 151.04573 13259 ft 405 kts 172°
2026-05-04 05:04 -33.28063 151.05173 12753 ft 399 kts 170°
2026-05-04 05:04 -33.30784 151.05745 12175 ft 396 kts 171°
2026-05-04 05:06 -33.48338 151.09120 10365 ft 327 kts 171°
2026-05-04 05:06 -33.50543 151.09544 10238 ft 313 kts 171°
2026-05-04 05:06 -33.52634 151.09947 10141 ft 297 kts 171°
2026-05-04 05:07 -33.54641 151.10333 9910 ft 288 kts 171°
2026-05-04 05:07 -33.56590 151.10709 9659 ft 279 kts 171°
2026-05-04 05:07 -33.58481 151.11073 9380 ft 272 kts 171°
2026-05-04 05:09 -33.72502 151.16161 6522 ft 259 kts 133°
2026-05-04 05:09 -33.73742 151.17730 6264 ft 260 kts 133°
2026-05-04 05:10 -33.74997 151.19317 6065 ft 265 kts 133°
2026-05-04 05:10 -33.76300 151.20956 6059 ft 278 kts 133°
2026-05-04 05:10 -33.77661 151.22659 6022 ft 285 kts 134°
2026-05-04 05:10 -33.79042 151.24377 6012 ft 285 kts 133°
2026-05-04 05:11 -33.80414 151.26083 6005 ft 283 kts 133°
2026-05-04 05:11 -33.81790 151.27790 6007 ft 286 kts 135°
2026-05-04 05:11 -33.83432 151.29130 6006 ft 287 kts 160°
2026-05-04 05:11 -33.85363 151.29737 6017 ft 288 kts 168°
2026-05-04 05:12 -33.87341 151.30222 6034 ft 293 kts 169°
2026-05-04 05:12 -33.89322 151.30711 6010 ft 289 kts 168°
2026-05-04 05:12 -33.91284 151.31209 6008 ft 287 kts 168°
2026-05-04 05:12 -33.93209 151.31707 5994 ft 277 kts 168°
2026-05-04 05:13 -33.95038 151.32184 5989 ft 260 kts 168°
2026-05-04 05:13 -33.96747 151.32631 5985 ft 243 kts 168°
2026-05-04 05:13 -33.98365 151.33055 5999 ft 236 kts 168°
2026-05-04 05:13 -33.99975 151.33476 6010 ft 237 kts 169°
2026-05-04 05:14 -34.01587 151.33897 6016 ft 238 kts 168°
2026-05-04 05:14 -34.03207 151.34321 6019 ft 238 kts 168°
2026-05-04 05:14 -34.04806 151.34740 6012 ft 238 kts 168°
2026-05-04 05:14 -34.06427 151.35165 5984 ft 239 kts 168°
2026-05-04 05:15 -34.08065 151.35594 5724 ft 243 kts 168°
2026-05-04 05:15 -34.09692 151.36022 5615 ft 233 kts 168°
2026-05-04 05:15 -34.11241 151.36429 5481 ft 222 kts 168°
2026-05-04 05:15 -34.12720 151.36817 5289 ft 215 kts 168°
2026-05-04 05:16 -34.14183 151.37201 4946 ft 216 kts 168°
2026-05-04 05:16 -34.15661 151.37495 4601 ft 217 kts 184°
2026-05-04 05:16 -34.17039 151.36922 4344 ft 205 kts 223°
2026-05-04 05:16 -34.17778 151.35602 4216 ft 183 kts 263°
2026-05-04 05:17 -34.17881 151.34122 4096 ft 175 kts 273°
2026-05-04 05:17 -34.17946 151.32647 3806 ft 178 kts 273°
2026-05-04 05:17 -34.18001 151.31155 3525 ft 174 kts 278°
2026-05-04 05:17 -34.17556 151.29924 3359 ft 157 kts 321°
2026-05-04 05:18 -34.16712 151.29048 3304 ft 165 kts 323°
2026-05-04 05:18 -34.15827 151.28136 3212 ft 167 kts 323°
2026-05-04 05:18 -34.15244 151.27540 3186 ft 165 kts 323°
2026-05-04 05:18 -34.14098 151.26360 3160 ft 159 kts 323°
2026-05-04 05:19 -34.13248 151.25480 3160 ft 162 kts 322°
2026-05-04 05:19 -34.12677 151.24899 3165 ft 163 kts 322°
2026-05-04 05:19 -34.11811 151.24023 3169 ft 163 kts 323°
2026-05-04 05:19 -34.10874 151.23279 3142 ft 158 kts 343°
2026-05-04 05:20 -34.09867 151.22902 3147 ft 147 kts 341°
2026-05-04 05:20 -34.08874 151.22503 2832 ft 158 kts 343°
2026-05-04 05:20 -34.07785 151.22124 2561 ft 162 kts 345°
2026-05-04 05:20 -34.06733 151.21781 2433 ft 154 kts 347°
2026-05-04 05:21 -34.05681 151.21506 2137 ft 154 kts 351°
2026-05-04 05:21 -34.04634 151.21273 1873 ft 152 kts 352°
2026-05-04 05:21 -34.03603 151.21031 1622 ft 149 kts 352°
2026-05-04 05:21 -34.02579 151.20772 1234 ft 153 kts 351°
2026-05-04 05:22 -34.01552 151.20517 963 ft 148 kts 353°
2026-05-04 05:22 -34.00554 151.20258 702 ft 142 kts 353°
2026-05-04 05:22 -33.99626 151.20033 574 ft 131 kts 352°
2026-05-04 05:22 -33.98744 151.19798 415 ft 129 kts 352°
2026-05-04 05:23 -33.97872 151.19579 239 ft 126 kts 350°
2026-05-04 05:23 -33.97009 151.19359 64 ft 127 kts 350°
2026-05-04 05:23 -33.96190 151.19149 27 ft 109 kts 349°
2026-05-04 05:23 -33.95621 151.19000 26 ft 45 kts 348°
2026-05-04 05:24 -33.95420 151.18931 23 ft 28 kts 338°
2026-05-04 05:24 -33.95259 151.18817 27 ft 26 kts 320°
2026-05-04 05:24 -33.95143 151.18691 29 ft 10 kts 318°
2026-05-04 05:24 -33.95104 151.18645 29 ft 8 kts 313°
2026-05-04 05:25 -33.95091 151.18568 29 ft 11 kts 258°
2026-05-04 05:25 -33.95107 151.18475 29 ft 11 kts 258°
2026-05-04 05:25 -33.95124 151.18385 29 ft 11 kts 257°
2026-05-04 05:25 -33.95139 151.18297 29 ft 11 kts 258°
2026-05-04 05:26 -33.95154 151.18212 29 ft 10 kts 258°
2026-05-04 05:26 -33.95169 151.18130 30 ft 10 kts 257°
2026-05-04 05:26 -33.95185 151.18049 29 ft 10 kts 259°
2026-05-04 05:26 -33.95186 151.17972 29 ft 9 kts 296°
2026-05-04 05:27 -33.95128 151.17950 29 ft 10 kts 352°
2026-05-04 05:28 -33.94367 151.17746 29 ft 15 kts 346°
2026-05-04 05:29 -33.94262 151.17714 29 ft 17 kts 346°
2026-05-04 05:29 -33.94142 151.17677 28 ft 19 kts 346°
2026-05-04 05:29 -33.94012 151.17639 27 ft 19 kts 347°
2026-05-04 05:29 -33.93886 151.17607 28 ft 16 kts 349°
2026-05-04 05:31 -33.93595 151.17823 29 ft 5 kts 11°
2026-05-04 05:31 -33.93570 151.17840 29 ft 3 kts 70°
2026-05-04 05:32 -33.93571 151.17867 29 ft 3 kts 98°
2026-05-04 05:32 -33.93575 151.17892 29 ft 2 kts 101°
2026-05-04 05:32 -33.93576 151.17900 29 ft 0 kts 101°